Miscellaneous Local Product
Issued by NWS North Platte, NE

Home | Current Version | Previous Version | Graphics & Text | Print | Product List | Glossary On
Versions: 1 2 3 4 5 6 7 8 9 10 11 12 13 14 15 16 17 18 19 20 21 22 23 24 25 26 27 28 29 30 31 32 33 34 35 36 37 38 39 40 41 42 43 44 45 46 47 48 49 50
000
AXUS43 KLBF 210710
MISLBF


WESTERN AND NORTH CENTRAL NEBRASKA HOURLY WEATHER ROUNDUP
NATIONAL WEATHER SERVICE NORTH PLATTE NE
200 AM CDT SAT APR 21 2018

NOTE: "FAIR" INDICATES FEW OR NO CLOUDS BELOW 12,000 FEET WITH NO
SIGNIFICANT WEATHER AND/OR OBSTRUCTIONS TO VISIBILITY.

NOTE: STATIONS NOT REPORTING VARIABLES SUCH AS SKY/WEATHER OR
PRESSURE ARE PROVIDED BY RAWS AND APRS NETWORKS AND ARE NOT UNDER
NATIONAL WEATHER SERVICE QUALITY CONTROL.

...OBSERVATIONS IN AND NEAR THE EASTERN PANHANDLE OF NEBRASKA...

CITY           SKY/WX    TMP DP  RH WIND       PRES   REMARKS
PINE RIDGE     CLOUDY    39  37  92 E8        30.26R WCI  33
GORDON         DRIZZLE   38  37  94 SE8       30.26R WCI  32
CHADRON        CLOUDY    40  37  89 S8        30.25R WCI  34
ALLIANCE       LGT RAIN  35  35 100 SE9       30.23R WCI  28
SIDNEY         MIX PCPN  34  33  96 E14       30.19S FOG     WCI  25
CRESCENT LAKE    N/A     37  36  98 E10         N/A  WCI  30
$$

...OBSERVATIONS IN NORTHERN NEBRASKA AND FAR SOUTHERN SOUTH DAKOTA...

CITY           SKY/WX    TMP DP  RH WIND       PRES   REMARKS
WINNER         CLOUDY    40  35  83 SE7       30.30S
VALENTINE      CLOUDY    42  38  85 CALM      30.30R
AINSWORTH      CLOUDY    40  38  93 E3        30.30R
O`NEILL        CLOUDY    46  37  73 E10       30.30S
THEDFORD       RAIN      41  39  95 E5        30.29R
BROKEN BOW     LGT RAIN  42  38  85 SE20G28   30.29R
ORD            LGT RAIN  43  39  86 SE13      30.31R FOG
ALBION         LGT RAIN  46  36  69 S6        30.33R
HALSEY           N/A     40  40  99 E6          N/A
BUTTE            N/A     39  37  92 E6          N/A  WCI  35
CHAMBERS         N/A     43  36  77 E5          N/A
EWING            N/A     42  37  84 E5          N/A
$$

...OBSERVATIONS IN SOUTHWEST NEBRASKA AND FAR NORTHEAST COLORADO...

CITY           SKY/WX    TMP DP  RH WIND       PRES   REMARKS
WRAY           LGT RAIN  37  37 100 E13       30.17S WCI  29
HOLYOKE        LGT RAIN  41  37  87 SE16G23   30.20R
IMPERIAL       LGT RAIN  40  39  97 E17       30.20F WCI  31
OGALLALA       LGT RAIN  40  38  93 E13       30.23S WCI  33
NORTH PLATTE   LGT RAIN  42  39  89 SE14      30.26S
MCCOOK         CLOUDY    42  41  96 E13       30.22F
LEXINGTON      RAIN      42  39  90 E15       30.28F
STAPLETON        N/A     39  37  91 E3          N/A
GOTHENBURG       N/A     41  38  91 E12         N/A
CALLAWAY         N/A     41  38  91 SE14        N/A
$$

...OBSERVATIONS IN CENTRAL LINCOLN COUNTY AREA...

CITY           SKY/WX    TMP DP  RH WIND       PRES   REMARKS
N.P. AIRPORT   LGT RAIN  42  39  89 SE14      30.26S
N.P. DOWNTOWN    N/A     40  38  93 CALM        N/A
N.P. SOUTHEAST   N/A     40  38  92 E6          N/A
N.P. HILLCREST   N/A     40  38  94 E13G21      N/A  WCI  32
$$

...OBSERVATIONS ACROSS THE ROCKIES AND WESTERN HIGH PLAINS...

CITY           SKY/WX    TMP DP  RH WIND       PRES   REMARKS
RAPID CITY     CLOUDY    38  37  97 SE16      30.25R WCI  29
SCOTTSBLUFF    MIX PCPN  35 N/A N/A SE12      30.22R WCI  27
CHEYENNE       LGT SNOW  32  32 100 SE13      30.14R FOG     WCI  22
DENVER         LGT SNOW  33  33 100 E5        30.08R FOG     WCI  29
BERTHOUD PASS  CLOUDY    18   7  62 SW7       30.07R WCI   8
MONARCH PASS   CLOUDY    19  16  86 W24       30.14F WCI   2
ASPEN          LGT SNOW  31  30  96 CALM      30.03S FOG
STEAMBOAT      CLOUDY    32  32 100 CALM      30.03R
LARAMIE        FLURRIES  29  28  96 CALM      30.11R
CASPER         CLOUDY    35  35 100 NE5       30.15R WCI  31
$$

...OBSERVATIONS ACROSS THE NORTHERN PLAINS...

CITY           SKY/WX    TMP DP  RH WIND       PRES   REMARKS
BISMARCK       PTCLDY    35  32  88 SE8       30.28S WCI  29
FARGO          FAIR      38  34  85 S9        30.36S WCI  31
PIERRE         CLOUDY    41  40  96 S7        30.30R
SIOUX FALLS    CLOUDY    39  32  76 CALM      30.37R
$$

...OBSERVATIONS ACROSS THE CENTRAL AND SOUTHERN PLAINS...

CITY           SKY/WX    TMP DP  RH WIND       PRES   REMARKS
OMAHA          CLOUDY    52  27  38 E8        30.34R
GRAND ISLAND   LGT RAIN  44  38  79 E10       30.31F
KANSAS CITY    CLOUDY    52  23  32 E8        30.28R
WICHITA        LGT RAIN  54  37  52 E13G23    30.14F
DODGE CITY     LGT RAIN  43  40  89 E16       30.11F
OKLAHOMA CITY  LGT RAIN  55  42  61 SE12      30.08F
DALLAS         CLOUDY    59  46  62 SE13      30.07R
AMARILLO       PTCLDY    46  43  89 E18       29.97F
$$




USA.gov is the U.S. government's official web portal to all federal, state and local government web resources and services.